TimeAKDT,TemperatureF,Dew PointF,Humidity,Sea Level PressureIn,VisibilityMPH,Wind Direction,Wind SpeedMPH,Gust SpeedMPH,PrecipitationIn,Events,Conditions,WindDirDegrees,DateUTC
12:53 AM,44.1,39.0,82,29.13,10.0,North,11.5,-,N/A,,Overcast,10,2013-10-31 08:53:00
1:53 AM,44.1,39.0,82,29.14,10.0,North,10.4,-,0.00,Rain,Light Rain,360,2013-10-31 09:53:00
2:53 AM,43.0,39.0,86,29.16,10.0,North,11.5,-,0.00,Rain,Light Rain,10,2013-10-31 10:53:00
3:53 AM,43.0,39.0,86,29.18,10.0,North,11.5,18.4,0.00,,Overcast,10,2013-10-31 11:53:00
4:53 AM,43.0,39.0,86,29.19,10.0,NNE,8.1,-,0.00,,Overcast,20,2013-10-31 12:53:00
5:53 AM,43.0,37.9,82,29.21,10.0,North,10.4,-,N/A,,Overcast,360,2013-10-31 13:53:00
6:53 AM,44.1,37.9,79,29.23,10.0,NNE,11.5,-,0.01,,Overcast,20,2013-10-31 14:53:00
7:53 AM,44.1,37.9,79,29.25,10.0,North,11.5,-,N/A,,Overcast,350,2013-10-31 15:53:00
8:53 AM,44.1,37.9,79,29.26,10.0,NNE,10.4,16.1,0.00,,Overcast,20,2013-10-31 16:53:00
9:53 AM,44.1,37.0,76,29.29,10.0,North,12.7,-,N/A,,Overcast,10,2013-10-31 17:53:00
10:53 AM,44.1,37.9,79,29.31,10.0,North,11.5,-,N/A,,Overcast,360,2013-10-31 18:53:00
11:53 AM,45.0,37.9,76,29.34,10.0,North,15.0,-,N/A,,Overcast,360,2013-10-31 19:53:00
12:53 PM,45.0,37.9,76,29.36,10.0,North,15.0,-,N/A,,Overcast,360,2013-10-31 20:53:00
1:53 PM,46.0,37.9,73,29.38,10.0,North,13.8,-,N/A,,Overcast,360,2013-10-31 21:53:00
2:53 PM,46.9,37.9,71,29.39,10.0,NNE,10.4,18.4,N/A,,Overcast,30,2013-10-31 22:53:00
3:53 PM,46.9,37.9,71,29.41,10.0,NNE,9.2,-,N/A,,Overcast,20,2013-10-31 23:53:00
4:53 PM,46.0,37.9,73,29.43,10.0,North,10.4,-,N/A,,Overcast,360,2013-11-01 00:53:00
5:53 PM,45.0,39.0,80,29.45,10.0,North,10.4,-,N/A,,Overcast,350,2013-11-01 01:53:00
6:53 PM,45.0,39.0,80,29.48,10.0,NNW,8.1,-,N/A,,Mostly Cloudy,340,2013-11-01 02:53:00
7:53 PM,45.0,39.0,80,29.50,10.0,North,10.4,-,N/A,,Overcast,360,2013-11-01 03:53:00
8:53 PM,44.1,39.9,85,29.52,10.0,North,3.5,-,0.00,,Overcast,10,2013-11-01 04:53:00
9:53 PM,43.0,39.0,86,29.55,10.0,North,8.1,-,N/A,,Overcast,360,2013-11-01 05:53:00
10:53 PM,43.0,39.9,89,29.58,10.0,North,8.1,-,N/A,,Overcast,10,2013-11-01 06:53:00
11:53 PM,42.1,41.0,96,29.61,10.0,NNE,9.2,-,N/A,,Overcast,20,2013-11-01 07:53:00